Miscellaneous Local Product
Issued by NWS Hastings, NE

Home | Current Version | Previous Version | Text Only | Print | Product List | Glossary Off
Versions: 1 2 3 4 5 6 7 8 9 10 11 12 13 14 15 16 17 18 19 20 21 22 23 24 25 26 27 28 29 30 31 32 33 34 35 36 37 38 39 40 41 42 43 44 45 46 47 48 49 50

000
AXUS43 KGID 271202
MISGRI

GID CWA HOURLY WEATHER ROUNDUP
NATIONAL WEATHER SERVICE HASTINGS NE
700 AM CDT WED MAY 27 2015

NOTE: "FAIR" INDICATES FEW OR NO CLOUDS BELOW 12,000 FEET WITH NO
SIGNIFICANT WEATHER AND/OR OBSTRUCTIONS TO VISIBILITY.

...SOUTH CENTRAL NEBRASKA...

CITY           SKY/WX    TMP DP  RH WIND       PRES   REMARKS
GRAND ISLAND   CLEAR     51  47  86 W5        30.07R
HASTINGS       CLEAR     52  46  80 CALM      30.06R
KEARNEY        CLEAR     50  45  81 N3        30.06S
ORD            CLEAR     46  44  93 CALM      30.05R
YORK           CLEAR     50  48  93 CALM      30.06R
AURORA         CLEAR     50  49  95 W5        30.06R
LEXINGTON      CLEAR     48  46  95 SW3       30.07R FOG
HOLDREGE       CLEAR     47  44  89 CALM      30.06R
HEBRON         CLEAR     48  46  91 CALM      30.06R

...NEBRASKA PANHANDLE...

CITY           SKY/WX    TMP DP  RH WIND       PRES   REMARKS
CHADRON        MOCLDY    56  53  90 SE3       29.99F
ALLIANCE       MOCLDY    54  51  90 S14       30.03S
SCOTTSBLUFF    CLOUDY    53  51  93 SE8       30.03S
SIDNEY         PTCLDY    51  49  92 SE5       30.06R

...WESTERN AND NORTH CENTRAL NEBRASKA...

CITY           SKY/WX    TMP DP  RH WIND       PRES   REMARKS
VALENTINE      PTCLDY    49  45  86 CALM      30.05R
AINSWORTH      PTCLDY    52  47  82 SW3       30.05R
ONEILL         CLEAR     52  47  84 SW5       30.04R
BROKEN BOW     CLEAR     49  46  90 CALM      30.06S
IMPERIAL       PTCLDY    51  48  89 E5        30.06F
NORTH PLATTE   MOCLDY    50  47  89 CALM      30.08R
MCCOOK         MOCLDY    52  48  86 SE6       30.06F

...EASTERN NEBRASKA...

CITY           SKY/WX    TMP DP  RH WIND       PRES   REMARKS
NORFOLK        CLEAR     55  50  83 CALM      30.03R
SO SIOUX CITY  SUNNY     54  50  86 CALM      30.00R
TEKAMAH        SUNNY     58  51  78 SW5       30.00R
COLUMBUS         N/A    N/A N/A N/A MISG        N/A
ALBION         CLEAR     48  46  91 CALM      30.04R
OMAHA EPPLEY   SUNNY     55  53  93 S3        30.02R
MILLARD          N/A     52  51  97 CALM      30.02R FOG
LINCOLN        CLEAR     53  50  89 S3        30.06R
NEBRASKA CITY  CLEAR     57  49  73 W8        30.03R
BEATRICE       CLEAR     51  50  94 CALM      30.05R
FALLS CITY     CLEAR     57  53  86 W9        30.04R

...NORTHERN KANSAS...

CITY           SKY/WX    TMP DP  RH WIND       PRES   REMARKS
GOODLAND       CLOUDY    54  52  93 S8        30.06S
HILL CITY      MOCLDY    52  50  93 CALM      30.07S
NORTON         MOSUNNY   52  48  87 CALM      30.07S
PHILLIPSBURG   MOCLDY    52  52 100 N3        30.08S FOG
SMITH CENTER   CLEAR     48  46  93 CALM      30.09R
HAYS           MOCLDY    54  46  76 NE6       30.07S
RUSSELL        MOCLDY    55  52  89 SE3       30.06R
CONCORDIA      PTCLDY    56  51  84 W3        30.07R
SALINA         CLEAR     59  55  87 CALM      30.07R
TOPEKA         CLEAR     58  56  93 CALM      30.07R



USA.gov is the U.S. government's official web portal to all federal, state and local government web resources and services.